[[{"header":{"parameterUnit":"m.s-1","parameterCategory":1,"la1":30.2991,"la2":30.254,"lo1":-89.0895,"lo2":-89.0444,"dy":0.0017,"dx":0.0017,"nx":28,"ny":28,"refTime":"2023-08-24T09:00:00:Z","depth":0,"parameterNumber":2,"parameterNumberName":"U-component_of_WINDS"},"data":[0,0,0,0,0,0,0,0,0,0,0,0,0,0,0,0,0,0,0,0,0,0,0,0,0,0,0,0,0,0,0,0,0,0,0,0,0,0,0,0,0,0,0,0,0,0,0,0,0,0,0,0,0,0,0,0,0,0,1.2882,1.2884,0,1.3071,1.3074,1.3076,1.3138,1.3137,1.3137,1.3136,1.3332,1.3337,1.3343,0,0,0,0,0,0,0,0,0,0,0,0,0,1.2575,1.2581,1.2882,1.2885,1.2887,1.3071,1.3074,1.3076,1.3138,1.3137,1.3136,1.3136,1.333,1.3337,1.3344,0,0,0,0,0,0,0,0,0,0,0,0,0,1.2731,1.2582,1.2882,1.294,1.2947,1.3071,1.3074,1.3077,1.3139,1.3137,1.3136,1.3135,1.3327,1.3336,1.3345,1.3425,0,0,1.3372,1.3376,0,0,0,0,0,0,0,0,1.2722,1.2742,1.2929,1.2936,1.2945,1.308,1.3037,1.3194,1.3139,1.3066,1.3136,1.3134,1.3249,1.3264,1.3303,1.3434,1.3442,1.3373,1.3378,1.3382,1.3385,0,0,0,0,0,0,0,1.2711,1.2734,1.2957,1.2932,1.2941,1.2957,1.2978,1.3067,1.3162,1.3072,1.3077,1.3099,1.3253,1.3294,1.3308,1.3445,1.3373,1.3381,1.3386,1.339,1.3649,1.365,0,0,0,0,0,0,1.269,1.2725,1.2951,1.2963,1.2828,1.2963,1.2987,1.3038,1.3161,1.3179,1.31,1.3101,1.3279,1.3297,1.3315,1.3415,1.3382,1.3391,1.3396,1.3647,1.3649,1.3651,0,0,0,0,0,0,1.2684,1.271,1.2944,1.2845,1.2876,1.297,1.3027,1.3042,1.3083,1.3182,1.3199,1.3124,1.3279,1.3302,1.3396,1.3422,1.3395,1.3403,1.3645,1.3648,1.365,1.3615,0,0,0,0,0,0,1.2674,1.2707,1.2738,1.2846,1.2881,1.3021,1.3029,1.3047,1.3098,1.3102,1.3209,1.3226,1.328,1.3382,1.3405,1.3434,1.341,1.3643,1.3646,1.3649,1.3615,1.3616,1.3618,0,0,0,0,0,1.2663,1.2722,1.274,1.2767,1.2922,1.3023,1.3043,1.3103,1.31,1.3132,1.3195,1.3222,1.3416,1.3391,1.3417,1.345,1.3642,1.3646,1.3649,1.3614,1.3616,1.3617,0,0,0,0,0,0,1.2617,1.2737,1.2758,1.2853,1.2927,1.3033,1.3076,1.3104,1.3181,1.3181,1.3253,1.3277,1.3365,1.3417,1.3388,1.3532,1.353,1.3539,1.3495,1.3497,1.3499,1.3484,1.3417,0,0,0,0,0,1.2617,1.2689,1.2791,1.2865,1.2901,1.2981,1.3028,1.3067,1.3147,1.3179,1.3249,1.3326,1.3404,1.3454,1.3531,1.3622,1.3646,1.3657,1.3659,1.3659,1.3666,1.3716,1.3722,1.3662,1.3662,1.3662,0,0,1.262,1.2695,1.2736,1.2857,1.2919,1.2991,1.3007,1.3084,1.3138,1.3191,1.3283,1.3337,1.3427,1.352,1.3564,1.3566,1.3688,1.3664,1.3663,1.367,1.372,1.3726,1.3731,1.3664,1.3664,1.3663,0,0,1.2661,1.2725,1.2793,1.2854,1.2947,1.3,1.3016,1.3118,1.3155,1.3249,1.3289,1.3355,1.3488,1.355,1.3599,1.3661,1.3688,1.3684,1.3692,1.374,1.3744,1.3749,1.377,1.3776,1.369,1.369,1.369,0,1.2652,1.2762,1.2824,1.2898,1.2949,1.2999,1.3068,1.3125,1.3238,1.3273,1.3273,1.3439,1.3504,1.3611,1.3625,1.3664,1.3684,1.3672,1.3739,1.3744,1.3749,1.3769,1.3777,1.3689,1.3689,1.3689,1.3689,0,1.2746,1.2821,1.2865,1.2972,1.3029,1.31,1.3172,1.3222,1.3256,1.3309,1.3403,1.3481,1.3574,1.3603,1.3638,1.3714,1.3712,1.3724,1.3724,1.3752,1.3773,1.3781,1.3687,1.3688,1.3688,1.3688,0,0,1.2764,1.2903,1.2917,1.2966,1.3071,1.3131,1.3203,1.3293,1.3334,1.341,1.3472,1.3582,1.3594,1.3649,1.3692,1.3734,1.3775,1.3741,1.3744,1.3744,1.3862,1.3851,1.3859,1.3794,1.3796,1.3798,1.3854,0,1.2817,1.2948,1.3005,1.311,1.3179,1.3227,1.329,1.3361,1.3412,1.3479,1.3535,1.3611,1.3622,1.3655,1.3699,1.3761,1.38,1.3758,1.3852,1.3855,1.3827,1.387,1.386,1.3909,1.3863,1.3864,1.3865,0,1.2897,1.2972,1.3083,1.3178,1.321,1.3265,1.3351,1.3414,1.3496,1.353,1.359,1.363,1.3707,1.3701,1.3808,1.3778,1.382,1.3855,1.3859,1.3869,1.3861,1.3881,1.3927,1.3934,1.3879,1.3877,1.3877,0,1.2896,1.3026,1.3108,1.3148,1.3262,1.3299,1.3349,1.3429,1.3478,1.3554,1.3586,1.367,1.3716,1.3779,1.384,1.383,1.394,1.394,1.397,1.3968,1.3991,1.3989,1.4043,1.4019,1.4019,1.4019,1.4019,0,1.295,1.3015,1.3109,1.316,1.3235,1.33,1.3372,1.3424,1.3495,1.3556,1.3603,1.366,1.3737,1.3804,1.3852,1.3932,1.3953,1.3982,1.3994,1.3977,1.3973,1.4005,1.4003,1.4021,1.4021,1.402,1.402,0,1.2962,1.3027,1.312,1.322,1.3246,1.3296,1.3381,1.3432,1.3485,1.3562,1.3584,1.3666,1.3746,1.3813,1.392,1.3952,1.4035,1.4049,1.4007,1.4013,1.4039,1.4035,1.4115,1.4128,1.4096,1.4096,1.4096,0,1.2991,1.3042,1.3146,1.319,1.3238,1.3309,1.336,1.3425,1.3476,1.3571,1.361,1.3693,1.3764,1.389,1.3959,1.404,1.4056,1.4079,1.4069,1.405,1.4055,1.4051,1.4056,1.4079,1.4079,1.4079,1.4079,0,1.3035,1.3064,1.3135,1.3217,1.3275,1.3343,1.3412,1.3445,1.3523,1.3578,1.366,1.3714,1.3821,1.3903,1.3991,1.4041,1.4073,1.4082,1.4093,1.4076,1.4049,1.4062,1.4008,1.408,1.4079,1.4079,1.4079,1.4079,1.3056,1.3103,1.3183,1.326,1.3318,1.3381,1.3433,1.3491,1.356,1.3652,1.3686,1.377,1.3849,1.397,1.402,1.4086,1.4091,1.4107,1.4111,1.4114,1.411,1.4038,1.4103,1.4103,1.4103,1.4103,1.4103,0,1.3101,1.3154,1.3224,1.3318,1.3378,1.3402,1.3479,1.3527,1.36,1.3671,1.3738,1.3831,1.391,1.3985,1.4068,1.4106,1.4123,1.4126,1.4123,1.4134,1.4103,1.4084,1.4111,1.4111,1.4111,1.4111,1.4111,1.4111,1.3131,1.3212,1.325,1.336,1.3413,1.3495,1.3536,1.3594,1.3651,1.3752,1.3818,1.3866,1.3938,1.4026,1.4099,1.4119,1.4147,1.4146,1.4169,1.4138,1.4137,1.4135,1.4118,1.4151,1.4152,1.4195,1.4196,1.4196]},{"header":{"parameterUnit":"m.s-1","parameterCategory":1,"la1":30.2991,"la2":30.254,"lo1":-89.0895,"lo2":-89.0444,"dy":0.0017,"dx":0.0017,"nx":28,"ny":28,"refTime":"2023-08-24T09:00:00:Z","depth":0,"parameterNumber":3,"parameterNumberName":"V-component_of_WINDS"},"data":[0,0,0,0,0,0,0,0,0,0,0,0,0,0,0,0,0,0,0,0,0,0,0,0,0,0,0,0,0,0,0,0,0,0,0,0,0,0,0,0,0,0,0,0,0,0,0,0,0,0,0,0,0,0,0,0,0,0,4.3302,4.3302,0,4.3242,4.3241,4.324,4.3227,4.3227,4.3228,4.3228,4.3158,4.3156,4.3153,0,0,0,0,0,0,0,0,0,0,0,0,0,4.3398,4.3397,4.3302,4.3302,4.3301,4.3242,4.3241,4.324,4.3227,4.3227,4.3228,4.3228,4.3159,4.3156,4.3153,0,0,0,0,0,0,0,0,0,0,0,0,0,4.3349,4.3396,4.3302,4.3287,4.3285,4.3242,4.3241,4.324,4.3226,4.3227,4.3228,4.3228,4.316,4.3156,4.3153,4.3118,0,0,4.3142,4.3141,0,0,0,0,0,0,0,0,4.3352,4.3345,4.329,4.3288,4.3286,4.3243,4.3249,4.3199,4.3226,4.3248,4.3228,4.3229,4.3185,4.318,4.3166,4.3115,4.3112,4.3142,4.314,4.3139,4.3138,0,0,0,0,0,0,0,4.3355,4.3348,4.3278,4.3289,4.3287,4.3281,4.3274,4.324,4.3213,4.3247,4.3245,4.3239,4.3184,4.317,4.3165,4.3111,4.3142,4.3139,4.3137,4.3136,4.3026,4.3025,0,0,0,0,0,0,4.3362,4.3351,4.328,4.3276,4.3321,4.3278,4.3271,4.3256,4.3214,4.3208,4.3238,4.3239,4.3175,4.3169,4.3162,4.3118,4.3139,4.3135,4.3133,4.3027,4.3026,4.3025,0,0,0,0,0,0,4.3365,4.3356,4.3282,4.3313,4.3304,4.3276,4.3258,4.3254,4.324,4.3208,4.3202,4.3229,4.3176,4.3167,4.3129,4.3115,4.3134,4.3131,4.3028,4.3027,4.3025,4.3029,0,0,0,0,0,0,4.3367,4.3357,4.3346,4.3313,4.3302,4.3253,4.3258,4.3252,4.3235,4.3235,4.3198,4.3192,4.3175,4.3135,4.3126,4.3111,4.3128,4.3029,4.3027,4.3026,4.303,4.3028,4.3027,0,0,0,0,0,4.3371,4.3348,4.3345,4.3337,4.3287,4.3253,4.3246,4.3229,4.3234,4.3221,4.32,4.3193,4.3119,4.3131,4.3121,4.3105,4.303,4.3028,4.3026,4.3031,4.3029,4.3027,0,0,0,0,0,0,4.3376,4.3343,4.334,4.3306,4.3283,4.325,4.3233,4.3227,4.32,4.32,4.3178,4.317,4.3134,4.3115,4.313,4.3068,4.3074,4.307,4.3081,4.3079,4.3077,4.3081,4.3125,0,0,0,0,0,4.3374,4.3351,4.3323,4.3295,4.3284,4.3261,4.3245,4.3235,4.3208,4.3197,4.3173,4.3146,4.3116,4.3096,4.3067,4.3028,4.3018,4.3012,4.301,4.3008,4.3005,4.2981,4.2977,4.3019,4.3019,4.3019,0,0,4.3368,4.3348,4.3334,4.3296,4.3276,4.325,4.3252,4.3225,4.3205,4.3192,4.3156,4.3137,4.3105,4.3066,4.3048,4.305,4.2991,4.3006,4.3005,4.3002,4.2978,4.2974,4.2971,4.3017,4.3017,4.3018,0,0,4.3345,4.3328,4.3303,4.3283,4.3255,4.324,4.3234,4.3202,4.319,4.3154,4.3144,4.3118,4.3067,4.3044,4.3026,4.2993,4.2985,4.2984,4.2974,4.295,4.2947,4.2944,4.293,4.2926,4.2981,4.2981,4.2981,0,4.334,4.3304,4.329,4.3263,4.3246,4.3236,4.3209,4.319,4.3152,4.3139,4.3143,4.3079,4.3056,4.3011,4.3003,4.2989,4.2979,4.2987,4.2949,4.2946,4.2943,4.293,4.2925,4.298,4.298,4.298,4.298,0,4.3299,4.3273,4.3256,4.3223,4.3203,4.3176,4.3156,4.3138,4.3129,4.3112,4.3074,4.3047,4.3011,4.3,4.299,4.2953,4.2955,4.2954,4.2959,4.2939,4.2926,4.2921,4.298,4.298,4.298,4.298,0,0,4.3276,4.3236,4.323,4.3214,4.3181,4.316,4.3131,4.3099,4.3083,4.3057,4.3031,4.2989,4.2988,4.2967,4.2954,4.2934,4.2908,4.2935,4.2934,4.293,4.2863,4.2862,4.2857,4.2903,4.2902,4.2901,4.2865,0,4.3247,4.3199,4.3186,4.3144,4.3119,4.3109,4.3084,4.306,4.3044,4.3018,4.2999,4.2969,4.2971,4.2958,4.2938,4.2915,4.2894,4.2918,4.2875,4.2874,4.2883,4.285,4.285,4.2817,4.286,4.2859,4.2858,0,4.3207,4.3183,4.3139,4.311,4.3098,4.3077,4.3045,4.3022,4.2993,4.2983,4.296,4.2949,4.2916,4.2924,4.2877,4.2894,4.2876,4.2862,4.286,4.2854,4.2864,4.2842,4.2806,4.2801,4.2851,4.2851,4.2852,0,4.3193,4.3149,4.3117,4.3104,4.3069,4.3053,4.3037,4.301,4.2991,4.2963,4.295,4.2918,4.2899,4.2873,4.2853,4.2861,4.2806,4.2813,4.2794,4.2794,4.2782,4.2783,4.2741,4.2773,4.2773,4.2773,4.2773,0,4.3161,4.3134,4.311,4.3091,4.306,4.3043,4.3012,4.2995,4.2971,4.2945,4.2934,4.291,4.2885,4.2857,4.284,4.2803,4.2795,4.2783,4.2779,4.2783,4.2785,4.277,4.2771,4.2772,4.2772,4.2772,4.2773,0,4.3139,4.3123,4.3087,4.3057,4.3049,4.3027,4.3,4.2979,4.2963,4.2931,4.2922,4.2895,4.2861,4.2839,4.2795,4.2784,4.2742,4.2739,4.2752,4.275,4.2731,4.2733,4.2678,4.2669,4.2708,4.2708,4.2707,0,4.3119,4.3099,4.3068,4.3051,4.3036,4.3009,4.2991,4.2973,4.2954,4.2919,4.2902,4.2868,4.284,4.2785,4.276,4.2726,4.272,4.2703,4.2715,4.272,4.2718,4.2719,4.2715,4.2701,4.2701,4.27,4.27,0,4.3085,4.3078,4.3053,4.3025,4.3004,4.298,4.2956,4.2942,4.292,4.2898,4.2865,4.2843,4.2799,4.2764,4.2728,4.2708,4.2699,4.2697,4.269,4.2694,4.2702,4.2696,4.2746,4.2698,4.2698,4.2698,4.2699,4.2699,4.3063,4.3044,4.3019,4.2991,4.2971,4.2949,4.2928,4.291,4.2882,4.2847,4.2838,4.2802,4.2772,4.2723,4.2702,4.2672,4.2674,4.2665,4.2662,4.2659,4.2658,4.2709,4.2666,4.2666,4.2666,4.2666,4.2666,0,4.3027,4.301,4.2985,4.2953,4.293,4.2928,4.29,4.2881,4.2851,4.2825,4.2798,4.2758,4.2725,4.2697,4.2662,4.2642,4.2637,4.2633,4.2634,4.2629,4.266,4.2669,4.2638,4.2638,4.2638,4.2638,4.2638,4.2638,4.3005,4.2972,4.2962,4.2919,4.2902,4.2869,4.2854,4.2832,4.2811,4.2769,4.2742,4.2725,4.2698,4.266,4.2628,4.262,4.2607,4.2603,4.2595,4.2624,4.2627,4.263,4.2638,4.2601,4.2601,4.2566,4.2565,4.2565]}]]